Location: Carson
(33.8314°N, 118.2820°W)
Time: 12:27:01
(UTC+00:00)

SL-08 ROCKET BODY - Pass Details

Date: 23 November 2020
Orbit: 896 x 964 km, 82.9° (Epoch: 21 January)

Event Time Altitude Azimuth Distance (km) Brightness Sun altitude
Rises 12:35:42 0° 198° (SSW) 3,558 7.4 -24.2°
Reaches altitude 10° 12:38:13 10° 203° (SSW) 2,628 6.6 -23.7°
Maximum altitude 12:44:02 52° 279° (W) 1,162 4.5 -22.5°
Drops below altitude 10° 12:50:01 10° 355° (N) 2,686 6.6 -21.2°
Sets 12:52:37 0° 1° (N) 3,642 7.4 -20.7°
